Location: Grust
(42.8833°N, 0.0333°W)
Time: 13:17:25
(UTC+00:00)

Cosmos 1892 - Pass Details

Date: 25 October 2020
Orbit: 504 x 523 km, 82.5° (Epoch: 24 November)

Event Time Altitude Azimuth Distance (km) Brightness Sun altitude
Rises 17:57:06 0° 4° (N) 2,662 6.2 -10.8°
Reaches altitude 10° 17:59:35 10° 20° (NNE) 1,770 5.2 -11.2°
Maximum altitude 18:02:44 23° 74° (ENE) 1,147 3.8 -11.8°
Enters shadow 18:05:26 12° 124° (ESE) 1,628 4.8 -12.3°
